"Pseudo-MPEC" for P11oSdR

Created 2021 Nov 27 17:07:11 UT using Find_Orb

Click here for an explanation of pseudo-MPECs

 
 Astrometry: 
     P11oSdR  C2021 11 11j-uu.VrWJ3BBC9?AstrometryNH61XnsY@aU-+\ZJmS'qYoi!k,DF51
     P11oSdR  C2021 11 11^%L,;7dW`8kSh^=$?gqrIC+redacted;2,/*mCW_nclickpT0a5cF51
     P11oSdR  C2021 11 11b#Y[uFSGoP,3b8herev'Bjfor$Sj=b40sOEexplanation6klJ^AF51

Station data:
(F51) Pan-STARRS 1, Haleakala  (N20.707235 W156.255910)  US/Hawaii.
   Observers N. Primak, A. Schultz, S. Watters, J. Thiel, T. Goggia. Measurer
   PS1 Science Consortium. 1.8-m Ritchey-Chrétien + CCD.

Orbital elements:  P11oSdR
   Perihelion 2021 Dec 16.387212 +/- 47.7051 TT =  9:17:35 (JD 2459564.887212)
Epoch 2021 Nov 12.0 TT = JDT 2459530.5   Earth MOID: 0.5858   AutoNEOCP
M 351.71683719 +/- 23.798124        (J2000 ecliptic)
n   0.24087916 +/- 0.275036         Peri.  259.10579 +/- 96.930090
a   2.55821216 +/- 1.94727          Node   181.03260 +/- 55.869338
e   0.4014067 +/- 0.245714          Incl.   10.10080 +/- 6.5340763
P   4.09                   H 21.8   G  0.15   U 11.9  SR
q 1.53132841 +/- 0.521045    Q 3.58509592 +/- 65.9909
From 3 observations 2021 Nov. 11 (32.3 min); mean residual 0".02
Residuals in arcseconds: 
211111 F51  .02+  .01+    211111 F51  .04-  .02-    211111 F51  .02+  .01+    

Ephemerides (geocentric):
Date (UTC) HH   RA              Dec         delta   r     elong  mag " sig PA
---- -- -- --  -------------   -----------  ------ ------ -----  --- ---- ---
2021 11 27 17  05 01 36.509   -02 19 24.36  .59212 1.5401 153.7 22.4  68d   2
2021 11 27 18  05 01 35.811   -02 19 49.90  .59206 1.5401 153.7 22.4  68d   2
2021 11 27 19  05 01 35.111   -02 20 15.39  .59200 1.5400 153.7 22.4  68d   2
2021 11 27 20  05 01 34.409   -02 20 40.83  .59195 1.5400 153.8 22.4  68d   2
2021 11 27 21  05 01 33.705   -02 21 06.22  .59189 1.5400 153.8 22.4  71d   0
2021 11 27 22  05 01 32.999   -02 21 31.56  .59184 1.5399 153.8 22.4  71d   0
2021 11 27 23  05 01 32.292   -02 21 56.85  .59178 1.5399 153.8 22.4  71d   0
2021 11 28 00  05 01 31.582   -02 22 22.10  .59172 1.5398 153.8 22.4  71d   0
2021 11 28 01  05 01 30.871   -02 22 47.29  .59167 1.5398 153.8 22.4  71d   0
2021 11 28 02  05 01 30.157   -02 23 12.44  .59162 1.5398 153.8 22.4  71d   0
2021 11 28 03  05 01 29.442   -02 23 37.53  .59156 1.5397 153.8 22.4  71d   0
2021 11 28 04  05 01 28.725   -02 24 02.58  .59151 1.5397 153.8 22.4  71d   0
2021 11 28 05  05 01 28.006   -02 24 27.58  .59145 1.5397 153.8 22.4  71d   0
2021 11 28 06  05 01 27.285   -02 24 52.52  .59140 1.5396 153.8 22.4  71d   1
2021 11 28 07  05 01 26.562   -02 25 17.42  .59135 1.5396 153.8 22.4  71d   1
2021 11 28 08  05 01 25.837   -02 25 42.27  .59129 1.5395 153.8 22.4  71d   1
2021 11 28 09  05 01 25.111   -02 26 07.06  .59124 1.5395 153.8 22.4  72d   1
2021 11 28 10  05 01 24.382   -02 26 31.81  .59119 1.5395 153.9 22.4  72d   1
2021 11 28 11  05 01 23.652   -02 26 56.51  .59114 1.5394 153.9 22.4  72d   1
2021 11 28 12  05 01 22.920   -02 27 21.16  .59109 1.5394 153.9 22.4  72d   1
2021 11 28 13  05 01 22.186   -02 27 45.75  .59103 1.5394 153.9 22.4  72d   1
2021 11 28 14  05 01 21.451   -02 28 10.30  .59098 1.5393 153.9 22.4  72d   1
2021 11 28 15  05 01 20.713   -02 28 34.80  .59093 1.5393 153.9 22.4  72d   1
2021 11 28 16  05 01 19.974   -02 28 59.24  .59088 1.5392 153.9 22.4  72d   1
2021 11 28 17  05 01 19.233   -02 29 23.64  .59083 1.5392 153.9 22.4  72d   1
2021 11 28 18  05 01 18.490   -02 29 47.98  .59078 1.5392 153.9 22.4  72d   1
2021 11 28 19  05 01 17.746   -02 30 12.28  .59073 1.5391 153.9 22.4  72d   1
2021 11 28 20  05 01 16.999   -02 30 36.52  .59068 1.5391 153.9 22.4  72d   1
2021 11 28 21  05 01 16.251   -02 31 00.71  .59063 1.5391 153.9 22.4  72d   1
2021 11 28 22  05 01 15.501   -02 31 24.85  .59058 1.5390 153.9 22.4  72d   1
2021 11 28 23  05 01 14.750   -02 31 48.94  .59053 1.5390 153.9 22.4  72d   1
2021 11 29 00  05 01 13.996   -02 32 12.98  .59049 1.5390 153.9 22.4  72d   1
2021 11 29 01  05 01 13.241   -02 32 36.97  .59044 1.5389 153.9 22.4  72d   1
2021 11 29 02  05 01 12.484   -02 33 00.91  .59039 1.5389 154.0 22.4  72d   1
2021 11 29 03  05 01 11.726   -02 33 24.80  .59034 1.5388 154.0 22.4  72d   1
2021 11 29 04  05 01 10.966   -02 33 48.63  .59030 1.5388 154.0 22.4  72d   1
2021 11 29 05  05 01 10.204   -02 34 12.42  .59025 1.5388 154.0 22.4  72d   1
2021 11 29 06  05 01 09.440   -02 34 36.15  .59020 1.5387 154.0 22.4  72d   1
2021 11 29 07  05 01 08.675   -02 34 59.83  .59016 1.5387 154.0 22.4  72d   1
2021 11 29 08  05 01 07.908   -02 35 23.46  .59011 1.5387 154.0 22.4  72d   1
2021 11 29 09  05 01 07.139   -02 35 47.04  .59006 1.5386 154.0 22.4  72d   1
2021 11 29 10  05 01 06.369   -02 36 10.56  .59002 1.5386 154.0 22.4  72d   1
2021 11 29 11  05 01 05.597   -02 36 34.04  .58997 1.5386 154.0 22.4  72d   1
2021 11 29 12  05 01 04.823   -02 36 57.46  .58993 1.5385 154.0 22.4  72d   1
2021 11 29 13  05 01 04.047   -02 37 20.83  .58988 1.5385 154.0 22.4  72d   1
2021 11 29 14  05 01 03.271   -02 37 44.15  .58984 1.5385 154.0 22.4  72d   1
2021 11 29 15  05 01 02.492   -02 38 07.42  .58979 1.5384 154.0 22.4  72d   1
2021 11 29 16  05 01 01.712   -02 38 30.63  .58975 1.5384 154.0 22.4  72d   1